Погода в Симферополе

Погода в Симферополе : погода сейчас, прогноз погоды и архив. Всё, что Вы хотите узнать о погоде в Симферополе!

Хотите узнать прогноз погоды в Симферополе? Тогда Вам сюда: Погода в Симферополе

Поиск расширенной информации на нашем сайте:

Другие новости

Новости СМИ2

Главная страница сайта

Новости сайта

03.07.2017

Напоминаем, что на нашем специализированном сайте Метеоцентр.Азия вы можете получить высокодетализированные автоматические прогнозы погоды по пунктам России, СНГ и мира в авиационном формате (включающие направление и скорость ветра, видимость, явления погоды, количество и форму облачности, нижнюю и верхнюю границу облачности).


Погода в Симферополе - сегодня

Время (UTC), дата Ветер
(°,м/с) 
Видим.   Явления Облачность Т
(°С)
Тd
(°С)
f(%) Тe
(°С)
Pmin
(гПа)
dP
(гПа)
Po
(мм)
O2
(г/м3)
Тmin Tmax R s Состояние
почвы
18 06.02.18 110 (В) 10 км    9/3 1500 м средняя 
[Sc|Ac trans]
+2.2 +0.1 86 +2  1028.4  1.5  754  301    +7.1       
21 06.02.18 090 (В) 10 км    ясно 
+0 -1.3 91 -2  1028.9  0.3  754  304           
00 07.02.18 110 (В) 10 км    ясно 
-0.3 -2.7 84 -2  1029.6  0.7  755  305           
03 07.02.18 120 (ЮВ) 10 км    ясно 
-0.8 -3.3 83 -2  1029.6  755  305  -1.4         
06 07.02.18 070 (В) 10 км    1/0 верхняя 
[Ci fib]
-0.8 -3.3 83 -3  1030.4  0.7  755  306  -1.4         
09 07.02.18 090 (В) 10 км    ясно 
+7.6 -2.2 50 +8  1029.1  -0.5  755  296           
12 07.02.18 050 (СВ) 10 км    3/0 верхняя 
[Ci fib]
+9.8 -2.5 42 +9  1026.6  -2.3  753  293           
15 07.02.18 050 (СВ) 10 км    ясно 
+6.2 -0.8 61 +6  1026.2  -0.7  753  297           
18 07.02.18 070 (В) 10 км    10/0 верхняя 
[Ci fib]
+1 -1.4 84 -2  1025.4  -1.2  752  302    +10.6       
21 07.02.18 070 (В) 10 км    8/0 средняя, верхняя 
[Ac trans|Ci fib]
+1 -0.6 89 -1  1023.4  -1.9  751  301           
00 08.02.18 080 (В) 10 км    6/0 средняя 
[Ac trans]
+2.8 +0.5 85 +1  1020.8  -2.4  749  299           
03 08.02.18 060 (СВ) 10 км    10/0 средняя 
[Ac und]
+1 +0.1 94 -1  1018.1  -2.8  747  300  +0.3         
06 08.02.18 150 (ЮВ) 10 км    10/4 1500 м средняя 
[Sc|Ac und]
+8.3 +3 69 +7  1017.2  -0.3  746  291  +0.5         
09 08.02.18 070 (В) 10 км  в посл. час ливневой дождь  10/4 1000 м кучево-дожд., средняя 
[Cb calv|Ac As]
+8.5 +6.8 89 +7  1015.1  -2  745  290           
12 08.02.18 160 (Ю) 10 км  в посл. час дождь{ливн. осадки}  10/3 1380 м средняя 
[Sc|Ac As]
+11.7 +7 73 +11  1011  -3.8  742  286           
15 08.02.18 140 (ЮВ) 10 км  в посл. час ливневой дождь  10/5 1080 м кучево-дожд., средняя 
[Cb calv|Ac und]
+10.8 +7.5 80 +10  1009.7  -1.3  741  286         
18 08.02.18 270 (З) 10 км  слаб. ливневой дождь  10/8 600 м кучево-дожд., средняя 
[Cb calv|Ac und]
+9.8 +8.1 89 +9  1009.1  -0.7  741  287    +12.7     
21 08.02.18 220 (ЮЗ) 10 км  {ливн. осадки}  10/6 540 м верхняя 
[St|Ci fib]
+8.7 +7.5 92 +7  1010.7  1.5  742  288           
00 09.02.18 240 (ЮЗ) 5{10}  6000 м  в посл. час туман{ливн. осадки}  10/10 150 м 
[St]
+5.9 +5.7 99 +4  1011.6  0.6  742  292           
03 09.02.18 200 (Ю) 10 км    3/3 300 м 
[St]
+4.7 +4.1 96 +3  1012.6  0.9  743  294  +4.5    0.9     
06 09.02.18 180 (Ю) 10 км    10/10 660 м 
[Sc]
+6.1 +4.1 87 +5  1013.3  0.8  743  292  +4.2    0.3     
09 09.02.18 210 (ЮЗ) 10 км    6/6 450 м 
[St]
+8.9 +5.3 78 +7  1012.8  -0.3  743  289           
12 09.02.18 230 (ЮЗ) 10 км    8/3 1500 м средняя 
[Sc|Ac trans]
+10.2 +4.8 69 +9  1012.4  -0.3  743  288           
15 09.02.18 210 (ЮЗ) 10 км  в посл. час ливневой дождь  10/3 1000 м кучево-дожд., средняя 
[Cb calv|Ac und]
+6.9 +5.4 90 +6  1013.3  0.7  743  291      0.3     
18 09.02.18 210 (ЮЗ) 10 км  {ливн. осадки}  10/10 300 м 
[Sc]
+6.4 +5.7 95 +5  1014.1  0.7  744  292    +10.7  0.3     
Время (UTC), дата Ветер
(°,м/с) 
Видим.   Явления Облачность Т
(°С)
Тd
(°С)
f(%) Тe
(°С)
Pmin
(гПа)
dP
(гПа)
Po
(мм)
O2
(г/м3)
Тmin Tmax R s Состояние
почвы

Для получения пояснительной информации подведите курсор к названию столбца.

ПОГОДА в Симферополе - архив

Всё, что Вы хотите узнать о погоде в Симферополе - удобно и подробно!

Выберите нужную дату (начиная с 1 января 2015* года) и нажмите кнопку "Найти".
Будут отображены архивные сводки погоды по пункту Симферополь, начиная с указанной даты.


Отображать данные в формате CSV (для использования в таблицах Excel)


Внимание! Наш архив погоды предназначен исключительно для личного некоммерческого использования в познавательных целях. Если Вам необходимы официальные справки о состоянии погоды (для производственных, юридических, коммерческих и т.п. целей), обращайтесь в органы Росгидромета.

*Примечание: данная дата относится к архиву по метеостанциям СССР (Россия, СНГ, Балтия).
Архив по метеостанциям Зарубежной Европы и Азии (кроме Китая) хранится 10 дней, по другим регионам земного шара (Китай, Африка, Америка, Австралия, Океания) - 1 день.

Симферополь - район местоположения метеостанции


Название, широта, долгота, высота метеостанции:
Симферополь 44.7°ш. 34.1°д. 181 м над ур. моря [Российская Федерация]

Дополнительная информация

В oтличие oт бoльшинства пoгoдных сайтoв мы публикуем пoдрoбную метеoинфoрмацию в детальнoм прoфессиoнальнoм фoрмате.

Характеристики температуры и влажнoсти вoздуха измеряются на высoте 2 м в тени вдали oт зданий и деревьев.
Скoрoсть ветра измеряется на высoте 10 м (на урoвне рoста челoвека скoрoсть ветра ниже в 1.5-2 раза). Если метеoстанция нахoдится в гoрoде или в лесу, тo скoрoсть ветра занижена на 2-4 м/с пo сравнению с oткрытым местoм. Скoрoсть ветра над акватoриями крупных рек и oзёр, а также на вершинах хoлмoв на 2-5 м/с выше, чем в oбычных услoвиях.
Атмoсфернoе давление в разных тoчках местнoсти мoжет значительнo oтличаться oт давления на метеoстанции, в зависимoсти oт услoвий рельефа (при пoдъёме на 10 м давление пoнижается примернo на 1 мм рт.ст.).